Погода в Константиновске

Погода в Константиновске : погода сейчас, прогноз погоды и архив. Всё, что Вы хотите узнать о погоде в Константиновске!

Поиск расширенной информации на нашем сайте:

Другие новости

Новости СМИ2

Главная страница сайта

Новости сайта

02.10.2013

Напоминаем, что на нашем новом сайте вы можете получить высокодетализированные прогнозы погоды по пунктам России, СНГ и мира (включающие важные для авиации метеовеличины, такие как направление и скорость ветра, видимость, явления погоды, количество и форма облачности, нижняя и верхняя граница облачности), а также ознакомиться с разнообразными материалами по авиационной метеорологии и подборкой полезных ссылок на эту тему.

Сайт Метеоцентр.Азия посвящён разработке технологий оптимизации авиаметеорологического обслуживания, включая проектирование и перспективное создание нескольких автоматизированных авиаметеорологических систем:
- система выпуска высокодетальных прогностических карт явлений погоды для нижнего воздушного пространства по России и ближнему зарубежью;
- система верификации прогнозов TAF (выпускаемых синоптиками официальных АМСГ РФ и ближнего зарубежья) и AUTOTAF (выпускаемых сайтом Метеоцентр.Азия) - выявление ошибок, онлайн-сопоставление с фактической погодой METAR, автоматическое внесение коррективов в прогнозы при резком отклонении фактической погоды от прогноза, подсчёт оправдываемости прогнозов по элементам и в целом;
- система обработки, анализа и отображения авиаметеорологической информации для применения провайдерами метеорологической информации.

Рекомендуем: Велоаксессуары в краснодаре велосипеды купить в краснодаре.

Погода в Константиновске - сегодня

Время (UTC), дата Ветер
(°,м/с) 
Видим.   Явления Облачность Т
(°С)
Тd
(°С)
f(%) Тe
(°С)
Pmin
(гПа)
dP
(гПа)
Po
(мм)
O2
(г/м3)
Тmin Tmax R s Состояние
почвы
09 26.04.17 160 (Ю) 10 км    6/6 600 м 
[Cu med, cong]
+14 +3.1 48 +14  1030.8  -0.4  767  294           
12 26.04.17 160 (Ю) 3{12}  10 км    ясно 
+15.4 +0.2 35 +16  1029.4  -1.4  766  292           
15 26.04.17 160 (Ю) 10 км    ясно 
+15.4 +0.5 36 +16  1028.5  -0.9  766  292    +16.1       
18 26.04.17 110 (В) 10 км    ясно 
+10.9 +0.4 48 +11  1028.6  766  297           
21 26.04.17 110 (В) 10 км    ясно 
+9.3 +1.6 59 +9  1028.4  -0.3  766  298           
00 27.04.17 120 (ЮВ) 10 км    ясно 
+7.6 +0.6 61 +8  1028.3  -0.1  765  300           
03 27.04.17 080 (В) 10 км    ясно 
+4.9 +1.1 76 +4  1028.7  0.3  766  303  +4.8        влажная 
06 27.04.17 120 (ЮВ) 10 км    ясно 
+12.2 -0.2 42 +12  1028.6  0.1  766  295           
09 27.04.17 130 (ЮВ) 5-10{11}  10 км    ясно 
+17.5 +0.3 31 +18  1027.1  -1.3  765  290           
12 27.04.17 110 (В) 5-10{10}  10 км    ясно 
+20.1 +1 28 +20  1025.4  -1.6  764  286           
15 27.04.17 120 (ЮВ) 3{12}  10 км    ясно 
+19.5 +1.1 29 +20  1024.6  -0.9  763  287    +20.5       
18 27.04.17 100 (В) 10 км    ясно 
+14.1 +1.7 43 +14  1025.1  0.4  763  292           
21 27.04.17 090 (В) 10 км    ясно 
+9.9 +1.9 57 +10  1025.4  0.2  763  297           
00 28.04.17 070 (В) 10 км    ясно 
+7.2 +2.5 72 +6  1024.4  -1.1  763  299           
03 28.04.17 060 (СВ) 10 км    ясно 
+6.8 +1.9 71 +7  1024.2  -0.2  762  299  +6.1        сухая 
06 28.04.17 080 (В) 10 км    ясно 
+13.1 +4.8 57 +13  1022.9  -1.1  762  292           
09 28.04.17 100 (В) 5{11}  10 км    ясно 
+18.3 +5.4 43 +18  1021.1  -1.7  760  286           
12 28.04.17 110 (В) 4{13}  10 км    3/3 600 м 
[Cu hum]
+21.9 +6.1 36 +22  1019  -1.9  759  282           
15 28.04.17 140 (ЮВ) 10 км    3/3 1000 м 
[Cu hum]
+20.9 +8.1 44 +21  1018.1  -0.9  758  282    +22.2       
18 28.04.17 060 (СВ) 10 км    3/3 1000 м 
[Cu hum]
+14 +8.7 70 +15  1018.9  0.5  759  289           
21 28.04.17 060 (СВ) 10 км    ясно 
+11 +4.6 65 +11  1019.2  0.3  759  293           
00 29.04.17 080 (В) 10 км    ясно 
+8.6 +3 68 +8  1018.7  -0.6  758  296           
03 29.04.17 080 (В) 10 км    ясно 
+7.2 +3.4 77 +6  1019  0.2  758  297  +6.7        сухая 
06 29.04.17 100 (В) 10 км    ясно 
+13.1 +5.9 62 +14  1019.3  0.5  759  291           
09 29.04.17 120 (ЮВ) 10 км    ясно 
+19 +7.2 46 +20  1019  -0.1  759  285           
Время (UTC), дата Ветер
(°,м/с) 
Видим.   Явления Облачность Т
(°С)
Тd
(°С)
f(%) Тe
(°С)
Pmin
(гПа)
dP
(гПа)
Po
(мм)
O2
(г/м3)
Тmin Tmax R s Состояние
почвы

Для получения пояснительной информации подведите курсор к названию столбца.

ПОГОДА в Константиновске - архив

Всё, что Вы хотите узнать о погоде в Константиновске - удобно и подробно!

Выберите нужную дату (начиная с 1 января 2015* года) и нажмите кнопку "Найти".
Будут отображены архивные сводки погоды по пункту Константиновск, начиная с указанной даты.


Отображать данные в формате CSV (для использования в таблицах Excel)


Внимание! Наш архив погоды предназначен исключительно для личного некоммерческого использования в познавательных целях. Если Вам необходимы официальные справки о состоянии погоды (для производственных, юридических, коммерческих и т.п. целей), обращайтесь в органы Росгидромета.

*Примечание: данная дата относится к архиву по метеостанциям СССР (Россия, СНГ, Балтия).
Архив по метеостанциям Зарубежной Европы и Азии (кроме Китая) хранится 10 дней, по другим регионам земного шара (Китай, Африка, Америка, Австралия, Океания) - 1 день.

Константиновск - район местоположения метеостанции


Название, широта, долгота, высота метеостанции:
Константиновск 47.6°ш. 41.1°д. 66 м над ур. моря [Российская Федерация]

Дополнительная информация

В oтличие oт бoльшинства пoгoдных сайтoв мы публикуем пoдрoбную метеoинфoрмацию в детальнoм прoфессиoнальнoм фoрмате.

Характеристики температуры и влажнoсти вoздуха измеряются на высoте 2 м в тени вдали oт зданий и деревьев.
Скoрoсть ветра измеряется на высoте 10 м (на урoвне рoста челoвека скoрoсть ветра ниже в 1.5-2 раза). Если метеoстанция нахoдится в гoрoде или в лесу, тo скoрoсть ветра занижена на 2-4 м/с пo сравнению с oткрытым местoм. Скoрoсть ветра над акватoриями крупных рек и oзёр, а также на вершинах хoлмoв на 2-5 м/с выше, чем в oбычных услoвиях.
Атмoсфернoе давление в разных тoчках местнoсти мoжет значительнo oтличаться oт давления на метеoстанции, в зависимoсти oт услoвий рельефа (при пoдъёме на 10 м давление пoнижается примернo на 1 мм рт.ст.).